This is the latest recevied weather packets stored in our database for station/object TG5ALY-15. If no packets are shown the sender has not sent any weather packets the latest 10 day(s).
| Time | Temp. | Humidity | Pressure | Rain* | Wind** | Luminosity | Snow |
|---|---|---|---|---|---|---|---|
| 1778301488 | 15° C | 82% | 1029.2 hPa | 0 mm | - | 0 W/m² | - |
| 1778300284 | 15.56° C | 79% | 1029.2 hPa | 0 mm | - | 0 W/m² | - |
| 1778299080 | 15.56° C | 78% | 1029.2 hPa | 0 mm | - | 0 W/m² | - |
| 1778297879 | 16.11° C | 80% | 1029.2 hPa | 0 mm | - | 0 W/m² | - |
| 1778296680 | 16.11° C | 81% | 1029.2 hPa | 0 mm | - | 0 W/m² | - |
| 1778295474 | 16.11° C | 80% | 1029.2 hPa | 0 mm | - | 0 W/m² | - |
| 1778294271 | 16.67° C | 77% | 1028.7 hPa | 0 mm | - | 0 W/m² | - |
| 1778293071 | 16.67° C | 76% | 1028.3 hPa | 0 mm | - | 0 W/m² | - |
| 1778291867 | 16.67° C | 77% | 1028.3 hPa | 0 mm | - | 0 W/m² | - |
| 1778290666 | 17.78° C | 72% | 1028.3 hPa | 0 mm | - | 0 W/m² | - |
| 1778289465 | 17.78° C | 73% | 1027.9 hPa | 0 mm | - | 0 W/m² | - |
| 1778288260 | 18.33° C | 71% | 1027 hPa | 0 mm | - | 0 W/m² | - |
| 1778287059 | 18.89° C | 72% | 1027 hPa | 0 mm | - | 0 W/m² | - |
| 1778285854 | 18.89° C | 74% | 1026.5 hPa | 0 mm | - | 3 W/m² | - |
| 1778284653 | 19.44° C | 74% | 1026.5 hPa | 0 mm | - | 19 W/m² | - |
| 1778283449 | 20.56° C | 71% | 1026.1 hPa | 0 mm | - | 32 W/m² | - |
| 1778282244 | 21.67° C | 61% | 1025.7 hPa | 0 mm | - | 71 W/m² | - |
| 1778281044 | 22.22° C | 36% | 1025.7 hPa | 0 mm | - | 211 W/m² | - |
| 1778279838 | 23.89° C | 50% | 1025.2 hPa | 0 mm | - | 288 W/m² | - |
| 1778278637 | 22.78° C | 57% | 1025.2 hPa | 0 mm | - | 379 W/m² | - |
| 1778277434 | 22.22° C | 62% | 1025.7 hPa | 0 mm | - | 76 W/m² | - |
| 1778276232 | 22.22° C | 61% | 1025.7 hPa | 0 mm | - | 134 W/m² | - |
| 1778275029 | 22.78° C | 64% | 1025.7 hPa | 0 mm | - | 506 W/m² | - |
| 1778273828 | 23.33° C | 57% | 1025.7 hPa | 0 mm | - | 186 W/m² | - |
| 1778272625 | 23.89° C | 60% | 1026.1 hPa | 0 mm | - | 812 W/m² | - |
* Rain latest hour (hover to see other rain measurements)
** Current wind speed in m/s (hover to see current wind gust speed)